Regional Weather Roundup
Issued by NWS Charleston, SC

Current Version | Previous Version | Graphics & Text | Print | Product List | Glossary On
Versions: 1 2 3 4 5 6 7 8 9 10 11 12 13 14 15 16 17 18 19 20 21 22 23 24 25 26 27 28 29 30 31 32 33 34 35 36 37 38 39 40 41 42 43 44 45 46 47 48 49 50
306
ASUS42 KCHS 212112
RWRCHS

REGIONAL WEATHER ROUNDUP
NATIONAL WEATHER SERVICE CHARLESTON SC
500 PM EDT THU MAY 21 2015

NOTE: "FAIR" INDICATES FEW OR NO CLOUDS BELOW 12,000 FEET WITH NO
SIGNIFICANT WEATHER AND/OR OBSTRUCTIONS TO VISIBILITY.

NOT ALL STATIONS ARE QUALITY CONTROLLED BY THE NATIONAL
WEATHER SERVICE. USE DATA WITH CAUTION...ESPECIALLY
DEWPOINT OBSERVATIONS.

SCZ027-030-031-034>040-042>050-212200-
...SOUTHEAST SOUTH CAROLINA...

CITY           SKY/WX    TMP DP  RH WIND       PRES   REMARKS
N CHARLESTON   MOSUNNY   91  60  35 W14G21    29.80F HX  90
WATERFRONT PAR   N/A     89  64  43 W6        29.78F HX  90
MOUNT PLEASANT FAIR      90  64  43 NW12G21   29.80S HX  91
JOHNS ISLAND   CLEAR     91  64  40 W15G21    29.81S HX  93
PINOPOLIS      NOT AVBL
MONCKS CORNER  FAIR      91  63  38 W5        29.80S HX  92
SUMMERVILLE    FAIR      91  61  35 W13G20    29.81F HX  91
BEAUFORT MCAS  MOSUNNY   93  59  31 W18       29.83S HX  92
BEAUFORT ARPT  FAIR      91  63  38 W13G24    29.83S HX  92
HILTON HEAD IS SUNNY     91  61  35 SW15G21   29.85F HX  91
WALTERBORO     CLEAR     90  59  35 SW15G22   29.82S
ALLENDALE      FAIR      91  59  33 SW8G17    29.83S HX  90

...SOUTHERN MIDLANDS AND PEE DEE...

CITY           SKY/WX    TMP DP  RH WIND       PRES   REMARKS
GEORGETOWN     NOT AVBL
KINGSTREE      NOT AVBL
ORANGEBURG     SUNNY     91  57  31 W15       29.81F
BARNWELL       FAIR      91  59  33 W16G23    29.84S HX  90
AIKEN          FAIR      88  52  29 W16G23    29.88S
MANNING        FAIR      90  59  35 NW10      29.79S
COLUMBIA       MOSUNNY   93  55  27 W14G29    29.80S HX  91
SUMTER         MOSUNNY   91  61  36 W9        29.78S HX  91
FLORENCE       MOSUNNY   87  66  49 N17G23    29.77R
MYRTLE BEACH   MOSUNNY   90  66  45 W18G26    29.76F HX  92
N MYRTLE BEACH MOSUNNY   88  67  49 W10G21    29.75S HX  91

$$

GAZ063-065-086>088-099>101-113>116-118-119-134>141-150-212200-
...SOUTHEAST GEORGIA...

CITY           SKY/WX    TMP DP  RH WIND       PRES   REMARKS
SAVANNAH ARPT  SUNNY     92  59  33 W15G23    29.85F HX  91
HUNTER AAF     SUNNY     93  62  34 W14       29.83S HX  94
FORT STEWART   SUNNY     93  58  29 W13G24    29.85S HX  92
STATESBORO     SUNNY     91  65  42 W14G21    29.86F HX  94
SYLVANIA       CLEAR     93  61  34 W13G20    29.86S HX  93
CLAXTON        FAIR      90  63  40 W14       29.87S HX  90

...CSRA...CENTRAL AND FAR SOUTHEAST GEORGIA...

CITY           SKY/WX    TMP DP  RH WIND       PRES   REMARKS
THOMSON        SUNNY     87  61  41 W16G25    29.93S
AUGUSTA-BUSH   SUNNY     89  56  32 W17G25    29.84S
AUGUSTA-DANIEL SUNNY     88  59  37 W8G18     29.87S
SWAINSBORO     FAIR      91  59  33 W13G20    29.88F HX  90
VIDALIA        SUNNY     90  57  33 W10G20    29.89S
EASTMAN        FAIR      91  62  37 W13G21    29.93F HX  91
HAZLEHURST     FAIR      93  59  31 W7        29.89S HX  92
ALMA           SUNNY     91  59  33 W14       29.89F HX  90
WAYCROSS       SUNNY     93  62  35 W10       29.89F HX  93
JESUP          FAIR      95  59  30 NW18      29.88F HX  94
BAXLEY         FAIR      91  61  35 W8G17     29.89S HX  91
BRUNSWICK      SUNNY     93  52  24 W13G21    29.88S HX  90
SAINT SIMONS   NOT AVBL

$$

SCZ027-028-034-036>038-045-046-048>050-GAZ119-141-212200-
...LAKE AND SUPPLEMENTAL COASTAL OBSERVATIONS...

STATION/POSITION TIME  TEMP    WIND        PRES    WAVE   SWELL
                       AIR SEA DIR/SP/G            HT/PER HT/PER/DIR
                 (UTC) (F)     (DEG/KT/KT) (MB)    (FT/S) (FT/S/D)
UPR LAKE MARION  NOT AVBL
WINYAH BAY       NOT AVBL
LAKE MURRAY      2000   86     240/ 12/ 15 1008.8F
ACE BASIN NERRS  NOT AVBL
FORT PULASKI     2000   88 79  270/ 18/ 22 1011.2F
SAPELO ISLAND    2000   91     250/ 13     1012.0S

$$

ANZ835-935-AMZ111-154-330-350-352-354-370-450-454-472-212200-
...C-MAN AND BUOY OBSERVATIONS...

STATION/POSITION TIME  TEMP    WIND        PRES    WAVE   SWELL
                       AIR SEA DIR/SP/G            HT/PER HT/PER/DIR
                 (UTC) (F)     (DEG/KT/KT) (MB)    (FT/S) (FT/S/D)
BUOY 41004       2050   78 76  230/ 19/ 21 1008.7F   4/ 5   2/ 8
BUOY 41008       2050   80 79  210/ 12/ 12 1011.6F   1/ 9
FOLLY BEACH CMAN 2100   90     270/  9/ 16 1009.5F
CAPERS NEARSHORE 2008   82     290/ 16/ 19 1009.6F
FRIPP NEARSHORE  2000   85     290/ 14/ 16 1010.2F


STATION/POSITION TIME  TEMP    WIND        PRES    WAVE   SWELL
                       AIR SEA DIR/SP/G            HT/PER HT/PER/DIR
                 (UTC) (F)     (DEG/KT/KT) (MB)    (FT/S) (FT/S/D)
5E ST. MARYS GA  2021      80                N/A     1/ 9
FRYING PAN BUOY  2050   78 77  200/ 19/ 23 1007.9F   4/ 5   2/110/ 8
BUOY 41025       2050   77 77  170/ 16/ 19 1007.6F   5/ 8   2/ 60/ 8
CAPE LOOKOUT NC  2100   77     180/ 15/ 17 1006.7F
BUOY 41002       2050   76 75  210/ 12/ 14 1012.6F   3/ 5   2/ 40/ 8
BUOY 41010       2020   80 80  230/ 10/ 10 1014.5F
ST AUGUSTINE FL  2100   91 72  250/ 10/ 13 1013.0F


$$



USA.gov is the U.S. government's official web portal to all federal, state and local government web resources and services.